Kuchera_Ratio
0.0 0.0 0.0 0.0 0.0 0.0 0.0 0.0 0.0 0.0 0.0 0.0 0.0 0.0 0.0 0.0 0.0 0.0 0.0 0.0 0.0 0.0 0.0 0.0 0.0 0.0 0.0 0.0 0.0 0.0 0.0 0.0 0.0 0.0 0.0 0.0 0.0 0.0 0.0 0.0 0.0 0.0 0.0 0.0
0.0 0.0 0.0 0.0 0.0 0.0 0.0 0.0 0.0 0.0 0.0 0.0 0.0 0.0 0.0 0.0 0.0 0.0 0.0 0.0 0.0 0.0 0.0 0.0 0.0 0.0 0.0 0.0 0.0 0.0 0.0 0.0 0.0 0.0 0.0 0.0 0.0 0.0 0.0 0.0 0.0 0.0 0.0 0.0
0.0 0.0 0.0 0.0 0.0 0.0 0.0 0.0 0.0 0.0 0.0 0.0 0.0 0.0 0.0 0.0 0.0 0.0 0.0 0.0 0.0 0.0 0.0 0.0 0.0 0.0 0.0 0.0 0.0 0.0 0.0 0.0 0.0 0.0 0.0 0.0 0.0 0.0 0.0 0.0 0.0 0.0 0.0 0.0
0.0 0.0 0.0 0.0 0.0 0.0 0.0 0.0 0.0 0.0 0.0 0.0 0.0 0.0 0.0 0.0 0.0 0.0 0.0 0.0 0.0 0.0 0.0 0.0 0.0 0.0 0.0 0.0 0.0 0.0 0.0 0.0 0.0 0.0 0.0 0.0 0.0 0.0 0.0 0.0 0.0 0.0 0.0 0.0
0.0 0.0 0.0 0.0 0.0 0.0 0.0 0.0 0.0 0.0 0.0 0.0 0.0 0.0 0.0 0.0 0.0 0.0 0.0 0.0 0.0 0.0 0.0 0.0 0.0 0.0 0.0 0.0 0.0 0.0 0.0 0.0 0.0 0.0 0.0 0.0 0.0 0.0 0.0 0.0 0.0 0.0 0.0 0.0
0.0 0.0 0.0 0.0 0.0 0.0 0.0 0.0 0.0 0.0 0.0 0.0 0.0 0.0 0.0 0.0 0.0 0.0 0.0 0.0 0.0 0.0 0.0 0.0 0.0 0.0 0.0 0.0 0.0 0.0 0.0 0.0 0.0 0.0 0.0 0.0 0.0 0.0 0.0 0.0 0.0 0.0 0.0 0.0
0.0 0.0 0.0 0.0 0.0 0.0 0.0 0.0 0.0 0.0 0.0 0.0 0.0 0.0 0.0 0.0 0.0 0.0 0.0 0.0 0.0 0.0 0.0 0.0 0.0 0.0 0.0 0.0 0.0 0.0 0.0 0.0 0.0 0.0 0.0 0.0 0.0 0.3 1.3 0.7 0.5 0.1 0.0 0.0
0.0 0.0 0.0 0.0 0.0 0.0 0.0 0.0 0.0 5.7 0.5 0.0 0.0 0.0 0.0 0.0 0.0 0.0 0.0 0.0 0.0 0.0 0.0 0.0 0.0 0.0 0.0 0.0 0.0 0.0 0.0 0.0 0.0 0.0 0.0 0.0 0.0 1.5 1.7 1.3 1.5 1.3 1.3 0.0
0.0 0.0 0.0 0.0 0.0 0.0 0.0 0.0 0.0 0.0 0.0 0.0 0.0 0.0 0.0 0.0 0.0 0.0 0.0 0.0 0.0 0.0 0.0 0.0 0.0 0.0 0.0 0.0 0.0 0.0 0.0 0.0 0.0 0.0 0.0 0.0 0.9 3.1 3.9 3.1 2.7 2.7 1.3 0.3
0.0 0.0 0.0 0.0 0.0 0.0 0.0 0.0 0.0 0.0 8.7 8.3 0.0 0.0 0.0 0.0 0.0 0.0 0.0 0.0 0.0 0.0 0.0 0.0 0.0 0.0 0.0 0.0 0.0 0.0 0.0 0.1 0.1 0.0 0.0 1.5 3.3 3.9 5.1 4.3 4.5 3.9 3.5 2.7
0.0 0.0 0.0 0.0 0.0 0.0 0.0 0.0 0.0 0.0 0.0 3.9 5.9 1.5 0.0 0.0 0.0 0.0 0.0 0.0 0.0 0.0 0.0 3.3 4.3 0.0 2.1 1.3 0.7 4.3 6.9 5.5 2.7 0.1 1.1 4.5 6.5 7.5 7.3 7.7 6.3 4.9 3.3 5.5
0.0 0.0 0.0 0.0 0.0 0.0 0.0 0.0 0.0 0.0 0.0 0.0 0.0 2.3 0.0 0.0 0.0 0.0 0.0 0.0 0.0 0.0 0.0 1.3 8.3 9.9 9.7 9.1 9.1 8.9 8.7 7.5 6.5 2.7 3.5 8.1 8.5 8.3 8.7 8.7 8.3 6.3 6.9 5.9
0.0 0.0 0.1 0.0 0.0 0.0 0.0 0.0 0.0 0.0 0.0 0.0 6.1 2.7 0.0 0.0 0.0 0.0 0.0 0.0 0.0 0.0 0.0 0.1 5.5 9.1 10.7 8.9 10.5 10.0 10.7 10.7 10.1 8.3 8.9 9.9 10.3 10.3 10.9 9.7 8.3 8.9 9.3 8.1
0.0 0.0 0.0 0.0 0.0 0.0 0.0 0.0 0.0 0.0 1.9 0.0 0.0 1.6 0.0 0.0 0.0 0.0 0.0 0.0 0.0 0.0 0.0 0.7 1.7 5.3 6.3 9.3 10.5 11.3 11.5 11.3 10.9 11.5 11.3 12.2 11.9 11.3 10.5 9.3 8.1 7.5 8.5 8.7
0.0 0.0 0.9 0.0 0.0 0.0 0.0 0.0 0.0 0.0 0.0 2.5 0.9 0.0 0.0 0.0 0.0 0.0 0.0 0.0 0.0 0.0 1.3 1.7 3.1 4.3 4.9 5.7 6.7 6.9 8.9 11.5 11.7 12.4 12.4 12.6 12.2 10.9 9.7 9.1 7.7 6.3 8.7 9.3
0.0 0.0 3.5 7.7 0.0 0.0 0.3 0.0 0.0 0.0 0.0 0.0 0.0 0.0 0.0 0.0 0.0 0.0 0.0 0.0 0.0 0.9 0.7 2.5 2.9 1.3 2.7 3.5 5.9 5.9 7.7 10.7 10.5 12.7 12.6 12.8 12.5 12.6 11.7 11.1 9.7 10.3 9.3 10.1
0.0 4.5 5.5 6.1 0.0 0.0 6.1 2.5 0.9 0.0 0.0 0.0 0.0 0.0 0.0 0.0 0.0 0.0 0.0 0.0 0.0 0.0 0.7 0.9 1.3 1.7 2.7 3.3 3.5 5.1 7.3 8.3 8.5 12.1 12.9 13.1 13.3 13.4 13.0 12.1 12.2 12.1 12.6 11.7
1.3 3.5 0.0 5.7 4.3 14.1 0.0 0.0 0.0 0.0 0.0 0.0 0.0 0.0 0.0 0.0 0.0 0.0 0.0 0.0 0.0 0.0 0.7 0.7 0.3 1.7 2.1 0.5 1.7 2.3 3.1 4.1 7.3 8.1 10.7 12.8 13.4 13.4 13.1 12.8 13.0 12.5 11.7 12.7
0.0 0.0 3.7 8.9 7.3 0.0 0.0 0.0 0.0 0.0 0.0 0.0 0.0 0.0 0.0 0.0 0.0 1.1 0.0 0.0 0.0 1.1 2.3 5.7 4.7 3.9 2.3 2.9 2.9 3.7 4.7 4.9 5.9 7.5 8.3 8.1 12.1 13.4 13.2 13.4 13.0 12.2 12.2 12.5
0.0 0.0 1.1 4.5 11.9 12.6 0.0 0.0 0.0 0.0 5.7 0.0 0.0 0.0 0.0 0.0 0.3 0.0 0.0 0.0 1.5 7.7 8.5 9.9 8.1 4.3 9.7 8.9 6.3 11.3 10.7 10.7 12.4 12.1 9.7 7.3 7.7 10.7 12.6 12.2 12.4 11.7 11.3 12.1
5.1 5.1 6.5 5.1 9.7 0.9 0.0 0.0 0.0 8.1 0.1 0.0 0.0 0.0 0.0 0.1 0.0 3.5 0.0 1.9 5.7 10.7 11.9 10.9 10.9 12.4 12.8 12.1 11.7 14.0 14.4 14.8 13.7 12.7 11.9 11.9 9.9 11.5 10.3 10.5 10.1 10.3 10.7 11.1
2.7 6.7 7.5 4.5 11.1 11.1 0.0 0.0 0.0 0.0 0.0 0.0 0.0 0.0 3.4 5.3 7.4 7.9 8.1 10.1 10.5 12.2 12.5 12.4 13.3 13.9 13.3 12.9 13.1 14.4 15.3 14.7 13.8 13.8 13.9 13.6 12.8 11.9 11.3 11.9 11.5 10.5 9.7 11.1
2.7 0.0 0.0 0.0 0.0 0.0 0.0 0.0 0.0 0.0 0.0 0.0 0.0 0.0 2.3 5.2 7.0 9.1 10.1 7.3 8.7 11.9 12.1 12.2 13.6 14.3 13.7 12.8 12.8 14.4 14.8 14.1 14.3 14.2 14.6 13.7 13.3 12.3 10.9 11.1 11.3 10.1 10.7 10.3
0.0 0.0 0.0 0.0 0.0 0.0 0.0 0.0 0.0 0.0 0.0 0.0 0.0 0.0 0.0 4.3 7.3 9.5 7.5 4.7 5.7 6.5 9.9 9.9 12.9 14.5 14.8 13.2 12.5 13.1 14.0 13.8 13.9 14.2 14.0 13.2 13.0 12.5 11.1 9.3 9.3 10.1 10.7 11.9
0.0 0.0 0.0 0.0 0.0 0.0 0.0 0.0 0.0 0.0 0.0 0.0 0.0 0.0 0.0 0.7 6.5 7.1 7.5 5.1 5.5 6.9 7.7 7.5 8.7 10.7 12.8 12.3 13.0 13.0 13.2 12.6 12.7 13.1 12.8 12.4 12.2 12.4 12.3 12.3 11.3 11.3 12.6 12.2
0.0 0.0 0.0 0.1 0.0 0.0 0.0 0.0 0.0 0.0 0.0 0.0 0.0 0.0 0.0 0.0 2.5 1.9 2.3 1.5 2.5 4.9 5.3 6.1 5.7 6.7 9.3 9.1 9.9 9.3 9.1 9.1 10.9 12.1 10.7 10.1 9.9 10.3 9.9 10.9 12.6 13.5 13.3 13.4